GW6707 Weather Reports


time (UTC)temp
C
wind
direction
speed
KPH
gust
KPH
rain 1hr
cm
rain 24hr
cm
rain mn
cm
humidity
%
barometer
mb
20260507234528 12 323 0.0 0.0 0.00 1.07 0.00 76 1016.6
20260507233006 12 323 0.0 0.0 0.00 1.12 0.00 75 1016.6
20260507231522 12 323 0.0 0.0 0.00 1.14 0.00 73 1016.7
20260507230020 12 323 0.0 0.0 0.00 1.27 0.00 72 1016.9
20260507224525 13 323 0.0 3.2 0.00 1.27 0.00 71 1016.8
20260507223027 13 323 0.0 3.2 0.00 1.30 0.00 69 1016.9
20260507221515 13 323 0.0 3.2 0.00 1.30 0.00 66 1016.9
20260507220022 13 323 0.0 3.2 0.00 1.32 0.00 64 1016.7
20260507214523 14 323 0.0 3.2 0.00 1.32 1.32 62 1016.6
20260507213029 14 323 1.6 3.2 0.00 1.32 1.32 62 1016.5
20260507211530 14 315 0.0 0.0 0.00 1.32 1.32 61 1016.6
20260507210016 15 315 0.0 3.2 0.00 1.32 1.32 60 1016.5
20260507204521 15 315 0.0 3.2 0.00 1.32 1.32 59 1016.4
20260507203026 15 323 0.0 4.8 0.00 1.32 1.32 58 1016.5
20260507201530 14 328 0.0 4.8 0.00 1.32 1.32 57 1016.1
20260507200043 15 323 1.6 4.8 0.00 1.32 1.32 57 1016.0
20260507194516 15 315 1.6 6.4 0.00 1.32 1.32 56 1015.7
20260507193023 15 306 3.2 6.4 0.00 1.32 1.32 56 1015.5
20260507191529 15 290 3.2 8.0 0.00 1.32 1.32 59 1015.2
20260507190032 15 310 4.8 8.0 0.00 1.32 1.32 59 1015.1
20260507184528 15 296 3.2 8.0 0.00 1.32 1.32 61 1015.0
20260507183032 15 313 1.6 6.4 0.00 1.32 1.32 62 1014.9
20260507181524 15 338 4.8 6.4 0.00 1.42 1.32 61 1014.7
20260507180037 16 290 1.6 4.8 0.00 1.45 1.32 59 1014.5
20260507174534 17 308 3.2 4.8 0.00 1.45 1.32 55 1014.4
20260507173031 18 298 3.2 6.4 0.00 1.45 1.32 52 1014.3
20260507171521 18 315 1.6 6.4 0.00 1.45 1.32 51 1014.2
20260507170027 18 168 0.0 3.2 0.00 1.47 1.32 52 1014.2
20260507164528 17 122 1.6 3.2 0.00 1.47 1.32 55 1014.3
20260507163031 17 153 3.2 4.8 0.00 1.47 1.32 55 1014.2
20260507161534 17 131 1.6 9.7 0.00 1.47 1.32 55 1014.2
20260507160034 17 226 0.0 4.8 0.00 1.47 1.32 57 1014.2
20260507154533 17 304 1.6 3.2 0.00 1.47 1.32 56 1014.2
20260507153013 18 125 3.2 8.0 0.00 1.47 1.32 56 1014.1
20260507151535 18 124 3.2 6.4 0.00 1.47 1.32 54 1014.1
20260507150024 17 163 1.6 9.7 0.00 1.47 1.32 52 1014.2
20260507144530 18 138 3.2 11.3 0.00 1.47 1.32 50 1014.3
20260507143030 18 164 1.6 11.3 0.00 1.47 1.32 53 1014.4
20260507141518 18 175 3.2 11.3 0.00 1.47 1.32 52 1014.5
20260507140022 17 360 4.8 12.9 0.00 1.47 1.32 55 1014.5
20260507134536 17 158 1.6 8.0 0.00 1.47 1.32 53 1014.6
20260507133027 17 331 3.2 11.3 0.00 1.47 1.32 53 1014.7
20260507131524 17 184 3.2 9.7 0.00 1.47 1.32 56 1014.8
20260507130020 17 297 4.8 11.3 0.00 1.47 1.32 55 1014.9
20260507124524 17 306 3.2 11.3 0.00 1.52 1.32 59 1014.9
20260507123025 17 16 3.2 9.7 0.00 2.54 1.32 63 1014.9
20260507121511 16 163 3.2 11.3 0.00 3.28 1.32 62 1014.9
20260507120020 16 308 1.6 12.9 0.00 3.28 1.32 64 1015.0
20260507114530 15 339 3.2 11.3 0.00 3.28 1.32 62 1015.1
20260507113026 15 283 1.6 12.9 0.00 3.28 1.32 66 1015.2
20260507111528 15 36 1.6 11.3 0.00 3.28 1.32 66 1015.3
20260507110016 15 173 1.6 8.0 0.00 3.35 1.32 67 1015.4
20260507104526 15 292 1.6 6.4 0.00 3.40 1.32 71 1015.4
20260507103029 15 300 1.6 6.4 0.00 3.40 1.32 68 1015.5
20260507101531 14 310 4.8 8.0 0.00 3.43 1.32 69 1015.7
20260507100035 14 46 1.6 6.4 0.00 3.43 1.32 72 1015.7
20260507094522 13 323 3.2 8.0 0.00 3.43 1.32 76 1015.8
20260507093026 12 311 3.2 6.4 0.00 3.43 1.32 80 1015.7
20260507091527 12 327 1.6 8.0 0.00 3.43 1.32 82 1015.6
20260507090037 13 302 4.8 8.0 0.00 3.43 1.32 79 1015.5
20260507084534 13 113 0.0 8.0 0.00 3.45 1.32 79 1015.4
20260507083024 14 133 4.8 9.7 0.00 3.48 1.32 76 1015.3
20260507081525 13 175 3.2 4.8 0.00 3.48 1.32 77 1015.2
20260507080030 13 159 1.6 3.2 0.00 3.48 1.32 81 1015.1
20260507074540 13 165 1.6 4.8 0.00 3.48 1.32 82 1015.0
20260507073021 12 146 0.0 3.2 0.00 3.48 1.32 89 1015.0
20260507071503 10 200 0.0 3.2 0.00 3.48 1.32 92 1015.0
20260507070012 10 209 0.0 3.2 0.00 3.48 1.32 92 1014.9
20260507064535 10 313 0.0 3.2 0.00 3.48 1.32 91 1014.7
20260507063016 10 313 0.0 3.2 0.00 3.48 1.32 91 1014.6
20260507061530 10 313 0.0 3.2 0.00 3.51 1.32 90 1014.5
20260507060004 10 324 0.0 3.2 0.00 3.51 1.32 89 1014.5
20260507054516 10 298 0.0 3.2 0.00 3.51 1.32 89 1014.2
20260507053016 9 250 0.0 3.2 0.00 3.51 1.32 87 1014.0
20260507051536 9 232 0.0 3.2 0.00 3.51 1.32 87 1013.9
20260507050026 9 310 0.0 3.2 0.00 3.51 1.32 88 1013.6
20260507044514 8 309 0.0 3.2 0.00 3.53 1.32 92 1013.5
20260507043011 8 303 0.0 3.2 0.00 3.56 1.32 92 1013.4
20260507041516 8 306 0.0 3.2 0.00 3.66 1.32 91 1013.3
20260507040024 8 315 1.6 3.2 0.00 3.76 1.32 90 1013.2
20260507034548 8 250 0.0 3.2 0.00 3.84 1.32 91 1013.2
20260507033008 8 244 0.0 3.2 0.00 3.99 1.32 91 1013.2
20260507031515 8 244 0.0 3.2 0.00 4.24 1.32 91 1013.2
20260507030021 9 227 0.0 3.2 0.05 4.55 1.32 92 1013.1
20260507024544 9 227 0.0 0.0 0.08 4.55 1.32 92 1013.2
20260507023025 9 227 0.0 3.2 0.08 4.55 1.32 91 1013.3
20260507021511 9 316 0.0 3.2 0.13 4.52 1.30 91 1013.3
20260507020017 9 313 0.0 3.2 0.18 4.50 1.27 90 1013.3
20260507014535 9 309 0.0 3.2 0.30 4.50 1.24 90 1013.3
20260507013028 8 275 0.0 3.2 0.53 4.47 1.22 90 1013.1
20260507011539 8 138 0.0 3.2 0.56 4.42 1.17 91 1013.2
20260507010017 8 319 1.6 8.0 0.64 4.32 1.07 90 1013.3
20260507004521 8 244 0.0 3.2 0.66 4.19 0.94 90 1013.2
20260507003024 8 315 0.0 3.2 0.48 3.94 0.69 90 1013.0
20260507001528 9 182 0.0 3.2 0.43 3.86 0.61 89 1013.0
20260507000030 10 312 0.0 4.8 0.36 3.68 0.43 86 1013.2